Simultaneous Nadir Overpasses (SNOs) Predictions

Prediction of SNOs between METOP-A and TERRA Satellite Orbit:

Table of predicted SNOs for the next 14.0 days since TLE Epoch: 5/11/2013
Index Date (METOP-A) Time (METOP-A) Lat,Lon (METOP-A) SZA (METOP-A ) Date (TERRA) Time (TERRA) Lat,Lon (TERRA) SZA (TERRA ) Distance(km) Time Diff (sec)
1 05/12/2013 21:55:04 81.29,-102.10 65.88 05/12/2013 21:55:30 81.28,-101.98 65.91 2.15 26
2 05/12/2013 22:45:42 -81.30, 66.12 114.02 05/12/2013 22:44:56 -81.30, 65.93 114.06 3.15 46
3 05/15/2013 17:29:26 81.29, -35.51 65.24 05/15/2013 17:29:40 81.29, -35.32 65.27 3.29 14
4 05/15/2013 18:20:05 -81.30, 132.34 114.71 05/15/2013 18:19:07 -81.29, 132.24 114.76 1.76 58
5 05/18/2013 13:03:47 81.29, 31.03 64.62 05/18/2013 13:03:49 81.30, 31.16 64.64 2.20 2
6 05/18/2013 13:54:26 -81.30,-161.10 115.32 05/18/2013 13:53:16 -81.29,-161.25 115.38 2.67 70
7 05/21/2013 07:47:29 -81.29, -70.25 116.01 05/21/2013 07:48:33 -81.29, -70.19 115.97 1.01 64
8 05/21/2013 08:38:09 81.29, 97.52 64.04 05/21/2013 08:37:59 81.29, 97.45 64.03 1.46 10
9 05/24/2013 03:21:51 -81.29, -3.77 116.55 05/24/2013 03:22:42 -81.29, -3.67 116.51 1.68 51




NCC Satellite Simultaneous Nadir Overpasses (SNOs) Prediction Service
